When you browse on this site, cookies collect data to enhance your experience and personalize the content and advertising you see.
Visit our Privacy Policy to learn more. By continuing to use the site, you agree to this use of cookies and data.
  • în România
  • Lista ţărilor
  • Pe 7 zile
  • Temperatura apei
  • Hartă satelitară
  • Meteo pe hartă
  • Widget-uri
  • user-avatar
    Intrare

    Meteo pe oră la Satu Mare

    Astăzi, 26 Martie, Marţi

    Timp Temperatura Precipitaţii Vânt Presiune Umiditate
    00:00 +6°C° 0.1 mm 5 m/s 748 mmHg 74%
    01:00 +6°C° 0.1 mm 5 m/s 749 mmHg 73%
    02:00 +6°C° 0.1 mm 5 m/s 749 mmHg 73%
    03:00 +5°C° 0 mm 5 m/s 749 mmHg 74%
    04:00 +3°C° 0 mm 5 m/s 750 mmHg 75%
    05:00 +3°C° 0 mm 5 m/s 750 mmHg 76%
    06:00 +3°C° 0 mm 5 m/s 750 mmHg 75%
    07:00 +3°C° 0 mm 5 m/s 751 mmHg 74%
    08:00 +3°C° 0 mm 5 m/s 752 mmHg 74%
    09:00 +5°C° 0 mm 5 m/s 752 mmHg 66%
    10:00 +7°C° 0 mm 5 m/s 752 mmHg 59%
    11:00 +8°C° 0 mm 5 m/s 752 mmHg 52%
    12:00 +8°C° 0 mm 5 m/s 752 mmHg 50%
    13:00 +9°C° 0 mm 5 m/s 752 mmHg 48%
    14:00 +9°C° 0 mm 5 m/s 752 mmHg 45%
    15:00 +9°C° 0 mm 5 m/s 752 mmHg 45%
    16:00 +9°C° 0 mm 5 m/s 752 mmHg 45%
    17:00 +9°C° 0 mm 5 m/s 752 mmHg 45%
    18:00 +8°C° 0 mm 3 m/s 752 mmHg 49%
    19:00 +7°C° 0 mm 2 m/s 752 mmHg 53%
    20:00 +7°C° 0 mm 1 m/s 753 mmHg 57%
    21:00 +7°C° 0 mm 1 m/s 753 mmHg 59%
    22:00 +6°C° 0 mm 2 m/s 753 mmHg 60%
    23:00 +6°C° 0 mm 2 m/s 753 mmHg 61%

    Mâine, 27 Martie, Miercuri

    Timp Temperatura Precipitaţii Vânt Presiune Umiditate
    00:00 +4°C° 0.1 mm 3 m/s 754 mmHg 63%
    01:00 +4°C° 0.1 mm 4 m/s 754 mmHg 65%
    02:00 +2°C° 0.1 mm 5 m/s 754 mmHg 67%
    03:00 +1°C° 0 mm 5 m/s 755 mmHg 63%
    04:00 +1°C° 0 mm 5 m/s 755 mmHg 60%
    05:00 0°C° 0 mm 5 m/s 756 mmHg 57%
    06:00 0°C° 0 mm 5 m/s 756 mmHg 57%
    07:00 0°C° 0 mm 5 m/s 757 mmHg 58%
    08:00 0°C° 0 mm 5 m/s 757 mmHg 58%
    09:00 +1°C° 0 mm 5 m/s 758 mmHg 55%
    10:00 +3°C° 0 mm 5 m/s 758 mmHg 52%
    11:00 +5°C° 0 mm 4 m/s 758 mmHg 48%
    12:00 +6°C° 0 mm 4 m/s 758 mmHg 43%
    13:00 +7°C° 0 mm 4 m/s 758 mmHg 39%
    14:00 +8°C° 0 mm 4 m/s 758 mmHg 34%
    15:00 +8°C° 0 mm 4 m/s 758 mmHg 34%
    16:00 +8°C° 0 mm 4 m/s 758 mmHg 35%
    17:00 +8°C° 0 mm 4 m/s 758 mmHg 36%
    18:00 +8°C° 0 mm 3 m/s 759 mmHg 41%
    19:00 +5°C° 0 mm 3 m/s 759 mmHg 46%
    20:00 +5°C° 0 mm 2 m/s 759 mmHg 51%
    21:00 +4°C° 0 mm 2 m/s 760 mmHg 53%
    22:00 +4°C° 0 mm 2 m/s 760 mmHg 55%
    23:00 +4°C° 0 mm 1 m/s 761 mmHg 57%

    Poimâine, 28 Martie, Joi

    Timp Temperatura Precipitaţii Vânt Presiune Umiditate
    00:00 +4°C° 0 mm 1 m/s 761 mmHg 58%
    01:00 +3°C° 0 mm 0 m/s 761 mmHg 59%
    02:00 +2°C° 0 mm 0 m/s 761 mmHg 60%
    03:00 +2°C° 0 mm 0 m/s 761 mmHg 61%
    04:00 +2°C° 0 mm 0 m/s 760 mmHg 62%
    05:00 +2°C° 0 mm 0 m/s 760 mmHg 63%
    06:00 +3°C° 0 mm 1 m/s 760 mmHg 60%
    07:00 +4°C° 0 mm 1 m/s 760 mmHg 58%
    08:00 +5°C° 0 mm 1 m/s 760 mmHg 56%
    09:00 +7°C° 0 mm 1 m/s 760 mmHg 52%
    10:00 +8°C° 0 mm 1 m/s 760 mmHg 47%
    11:00 +10°C° 0 mm 1 m/s 760 mmHg 43%
    12:00 +10°C° 0 mm 2 m/s 760 mmHg 43%
    13:00 +12°C° 0 mm 2 m/s 760 mmHg 42%
    14:00 +13°C° 0 mm 2 m/s 760 mmHg 42%
    15:00 +11°C° 0 mm 3 m/s 760 mmHg 45%
    16:00 +11°C° 0 mm 3 m/s 760 mmHg 49%
    17:00 +11°C° 0 mm 3 m/s 760 mmHg 52%
    18:00 +10°C° 0 mm 3 m/s 760 mmHg 59%
    19:00 +8°C° 0 mm 3 m/s 760 mmHg 67%
    20:00 +7°C° 0 mm 2 m/s 761 mmHg 74%
    21:00 +6°C° 0 mm 2 m/s 761 mmHg 76%
    22:00 +6°C° 0 mm 2 m/s 761 mmHg 79%
    23:00 +5°C° 0 mm 2 m/s 762 mmHg 81%

    29 Martie, Vineri

    Timp Temperatura Precipitaţii Vânt Presiune Umiditate
    00:00 +6°C° 0 mm 1 m/s 762 mmHg 82%
    01:00 +5°C° 0 mm 1 m/s 762 mmHg 83%
    02:00 +5°C° 0 mm 1 m/s 762 mmHg 84%
    03:00 +5°C° 0 mm 1 m/s 762 mmHg 85%
    04:00 +4°C° 0 mm 1 m/s 762 mmHg 86%
    05:00 +4°C° 0 mm 1 m/s 762 mmHg 87%
    06:00 +5°C° 0 mm 1 m/s 762 mmHg 83%
    07:00 +5°C° 0 mm 1 m/s 762 mmHg 80%
    08:00 +6°C° 0 mm 1 m/s 762 mmHg 76%
    09:00 +8°C° 0 mm 1 m/s 762 mmHg 70%
    10:00 +10°C° 0 mm 1 m/s 762 mmHg 63%
    11:00 +10°C° 0 mm 2 m/s 762 mmHg 56%
    12:00 +12°C° 0 mm 2 m/s 762 mmHg 52%
    13:00 +13°C° 0 mm 2 m/s 761 mmHg 48%
    14:00 +13°C° 0 mm 3 m/s 761 mmHg 45%
    15:00 +13°C° 0 mm 3 m/s 760 mmHg 45%
    16:00 +14°C° 0 mm 3 m/s 760 mmHg 46%
    17:00 +14°C° 0 mm 3 m/s 760 mmHg 47%
    18:00 +12°C° 0 mm 3 m/s 760 mmHg 55%
    19:00 +11°C° 0 mm 3 m/s 760 mmHg 63%
    20:00 +9°C° 0 mm 2 m/s 761 mmHg 71%
    21:00 +9°C° 0 mm 2 m/s 761 mmHg 76%
    22:00 +8°C° 0 mm 2 m/s 761 mmHg 81%
    23:00 +7°C° 0 mm 2 m/s 761 mmHg 86%

    30 Martie, Sâmbătă

    Timp Temperatura Precipitaţii Vânt Presiune Umiditate
    00:00 +7°C° 0 mm 2 m/s 761 mmHg 87%
    01:00 +7°C° 0 mm 2 m/s 761 mmHg 88%
    02:00 +7°C° 0 mm 1 m/s 761 mmHg 90%
    03:00 +7°C° 0 mm 1 m/s 761 mmHg 90%
    04:00 +6°C° 0 mm 1 m/s 760 mmHg 91%
    05:00 +6°C° 0 mm 1 m/s 760 mmHg 91%
    06:00 +7°C° 0 mm 1 m/s 760 mmHg 88%
    07:00 +7°C° 0 mm 0 m/s 760 mmHg 84%
    08:00 +7°C° 0 mm 0 m/s 760 mmHg 81%
    09:00 +10°C° 0 mm 1 m/s 760 mmHg 74%
    10:00 +12°C° 0 mm 1 m/s 759 mmHg 68%
    11:00 +14°C° 0 mm 1 m/s 759 mmHg 61%
    12:00 +15°C° 0 mm 1 m/s 758 mmHg 58%
    13:00 +16°C° 0 mm 1 m/s 758 mmHg 54%
    14:00 +16°C° 0 mm 2 m/s 757 mmHg 51%
    15:00 +17°C° 0 mm 2 m/s 756 mmHg 51%
    16:00 +18°C° 0 mm 1 m/s 756 mmHg 51%
    17:00 +18°C° 0 mm 1 m/s 755 mmHg 51%
    18:00 +16°C° 0 mm 1 m/s 755 mmHg 56%
    19:00 +14°C° 0 mm 1 m/s 755 mmHg 62%
    20:00 +12°C° 0 mm 1 m/s 755 mmHg 68%
    21:00 +12°C° 0 mm 1 m/s 755 mmHg 70%
    22:00 +11°C° 0 mm 1 m/s 755 mmHg 72%
    23:00 +11°C° 0 mm 1 m/s 755 mmHg 74%

    31 Martie, Duminică

    Timp Temperatura Precipitaţii Vânt Presiune Umiditate
    00:00 +10°C° 0 mm 1 m/s 755 mmHg 76%
    01:00 +10°C° 0 mm 1 m/s 754 mmHg 78%
    02:00 +9°C° 0 mm 1 m/s 754 mmHg 80%
    03:00 +9°C° 0 mm 1 m/s 754 mmHg 81%
    04:00 +9°C° 0 mm 1 m/s 753 mmHg 83%
    05:00 +8°C° 0 mm 1 m/s 753 mmHg 84%
    06:00 +9°C° 0 mm 1 m/s 753 mmHg 81%
    07:00 +10°C° 0 mm 1 m/s 752 mmHg 79%
    08:00 +11°C° 0 mm 1 m/s 752 mmHg 76%
    09:00 +12°C° 0 mm 1 m/s 752 mmHg 70%
    10:00 +14°C° 0 mm 1 m/s 751 mmHg 64%
    11:00 +16°C° 0 mm 1 m/s 751 mmHg 58%
    12:00 +18°C° 0 mm 1 m/s 750 mmHg 55%
    13:00 +18°C° 0 mm 2 m/s 750 mmHg 51%
    14:00 +18°C° 0 mm 2 m/s 749 mmHg 48%
    15:00 +18°C° 0.1 mm 4 m/s 750 mmHg 52%
    16:00 +16°C° 0.1 mm 5 m/s 750 mmHg 55%
    17:00 +16°C° 0.1 mm 7 m/s 750 mmHg 58%
    18:00 +12°C° 0 mm 7 m/s 751 mmHg 60%
    19:00 +10°C° 0 mm 7 m/s 752 mmHg 61%
    20:00 +7°C° 0 mm 8 m/s 753 mmHg 62%
    21:00 +6°C° 0 mm 8 m/s 753 mmHg 61%
    22:00 +6°C° 0 mm 7 m/s 753 mmHg 60%
    23:00 +5°C° 0 mm 7 m/s 754 mmHg 60%
    Arată mai mult